Content
SEND FEEDBACK

Daily
Averages
Monthly
Summary
United States of America

MARLINTON, WEST VIRGINIA


Home > North America > United States > West Virginia
Elevation: 215 feet     Latitude: 38 13N     Longitude: 080 05W

WEATHER
 
SELECT A DAY
Number of Records: 452,327;   Date Range: 1/1/95 - 7/22/14
 
SHARE

PRINT THIS DATA

[ ← Previous Day ]
WEATHER ALMANAC - FEBRUARY 13, 2013
[ Next Day → ]
[ °C ]   °F
Weather ElementAverageHighLow
Temperature31.6 °F39.2 °F (3:35 am)26.6 °F (8:55 pm)
Dewpoint22 °F30.2 °F (4:15 pm)6.8 °F (3:35 am)
Humidity73.4 %100 % (12:15 pm)26 % (3:35 am)
Barometer29.71 in29.91 in (12:35 am)29.56 in (3:15 pm)
Wind Speed8.9 mph20.7 mph (11:15 pm)
Wind Gust29.9 mph (11:35 pm)
Weather ElementAverage
Visibility5.5 mi
Wind DirectionS (182.3 °)

Weather ElementTotal
Precipitation0.12 in
Heating Degree Days32.1 (Base 65)
Averaged from 70 records on February 13, 2013
WEATHER CONDITIONS BREAKOUT
WIND DIRECTION BREAKOUT
WEATHER BY HOUR - FEBRUARY 13, 2013
[ °C ]   °F
Local TimeTemperatureDewpointHumidityBarometerVisibilityWind DirectionWind SpeedGust SpeedPrecipitationEventsConditions
12:35 AM33.8 °F15.8 °F48 %29.91 in10.0 miSW (230°)4.6 mphClear
12:55 AM30.2 °F15.8 °F55 %29.90 in10.0 miWest (260°)6.9 mphClear
1:15 AM35.6 °F15.8 °F44 %29.88 in10.0 miWest (280°)4.6 mphClear
1:35 AM35.6 °F15.8 °F44 %29.88 in10.0 miCalmClear
1:55 AM35.6 °F14.0 °F41 %29.87 in10.0 miCalmScattered Clouds
2:15 AM35.6 °F15.8 °F44 %29.86 in10.0 miWest (260°)4.6 mphMostly Cloudy
2:35 AM35.6 °F17.6 °F48 %29.85 in10.0 miWSW (250°)3.5 mphOvercast
2:55 AM35.6 °F19.4 °F52 %29.84 in10.0 miWSW (240°)5.8 mphOvercast
3:15 AM37.4 °F12.2 °F36 %29.84 in10.0 miSSW (210°)4.6 mphOvercast
3:35 AM39.2 °F6.8 °F26 %29.83 in10.0 miSW (220°)4.6 mphOvercast
3:55 AM37.4 °F8.6 °F30 %29.83 in10.0 miWSW (240°)4.6 mphOvercast
4:15 AM37.4 °F6.8 °F28 %29.82 in10.0 miCalmOvercast
4:35 AM35.6 °F12.2 °F38 %29.81 in10.0 miSSE (160°)3.5 mphOvercast
4:55 AM35.6 °F12.2 °F38 %29.81 in10.0 miSW (230°)3.5 mphOvercast
5:15 AM35.6 °F12.2 °F38 %29.79 in10.0 miWNW (290°)3.5 mphMostly Cloudy
5:35 AM35.6 °F12.2 °F38 %29.79 in10.0 miWNW (300°)3.5 mphScattered Clouds
5:55 AM37.4 °F12.2 °F36 %29.77 in10.0 miCalmScattered Clouds
6:15 AM35.6 °F12.2 °F38 %29.78 in10.0 miSE (130°)4.6 mphMostly Cloudy
6:35 AM35.6 °F15.8 °F44 %29.77 in10.0 miESE (110°)4.6 mphOvercast
6:55 AM35.6 °F15.8 °F44 %29.77 in10.0 miSE (130°)5.8 mphOvercast
7:15 AM35.6 °F15.8 °F44 %29.77 in10.0 miSE (140°)5.8 mphOvercast
7:35 AM35.6 °F15.8 °F44 %29.76 in10.0 miESE (120°)6.9 mphOvercast
7:55 AM35.6 °F15.8 °F44 %29.76 in10.0 miSE (130°)6.9 mphOvercast
8:15 AM35.6 °F15.8 °F44 %29.75 in10.0 miESE (110°)6.9 mphOvercast
8:35 AM35.6 °F15.8 °F44 %29.74 in10.0 miESE (110°)9.2 mphOvercast
8:55 AM33.8 °F15.8 °F48 %29.72 in10.0 miEast (100°)9.2 mphMostly Cloudy
9:15 AM33.8 °F15.8 °F48 %29.72 in10.0 miEast (100°)12.7 mphOvercast
9:35 AM33.8 °F17.6 °F52 %29.72 in10.0 miESE (110°)10.4 mphOvercast
9:55 AM33.8 °F17.6 °F52 %29.71 in10.0 miSE (130°)12.7 mphOvercast
10:15 AM33.8 °F21.2 °F60 %29.70 in4.0 miESE (120°)15.0 mph20.7 mphSnowLight Snow
10:35 AM33.8 °F21.2 °F60 %29.69 in10.0 miESE (120°)12.7 mph19.6 mphOvercast
10:55 AM33.8 °F21.2 °F60 %29.69 in10.0 miESE (110°)10.4 mph18.4 mphSnowLight Snow
11:15 AM33.8 °F21.2 °F60 %29.69 in10.0 miSE (130°)10.4 mphOvercast
11:35 AM32.0 °F24.8 °F75 %29.70 in4.0 miESE (110°)9.2 mphOvercast
11:55 AM30.2 °F28.4 °F93 %29.67 in2.5 miESE (120°)8.1 mphSnowLight Snow
12:15 PM28.4 °F28.4 °F100 %29.65 in3.0 miESE (120°)10.4 mph16.1 mphSnowLight Snow
12:35 PM28.4 °F28.4 °F100 %29.64 in5.0 miESE (110°)9.2 mph0.01 inSnowLight Snow
12:55 PM28.4 °F28.4 °F100 %29.63 in3.0 miESE (110°)10.4 mphSnowLight Snow
1:15 PM28.4 °F28.4 °F100 %29.61 in0.2 miESE (110°)9.2 mphSnowLight Snow
1:35 PM28.4 °F28.4 °F100 %29.59 in0.2 miEast (100°)8.1 mphOvercast
1:55 PM28.4 °F28.4 °F100 %29.58 in0.2 miESE (110°)6.9 mphOvercast
2:15 PM28.4 °F28.4 °F100 %29.59 in0.2 miEast (90°)6.9 mphOvercast
2:35 PM28.4 °F28.4 °F100 %29.57 in0.2 miEast (90°)5.8 mph0.01 inOvercast
2:55 PM28.4 °F28.4 °F100 %29.57 in0.2 miEast (90°)8.1 mphSnowLight Snow
3:15 PM28.4 °F28.4 °F100 %29.56 in0.2 miEast (90°)5.8 mphSnowLight Snow
3:35 PM28.4 °F28.4 °F100 %29.56 in0.2 miESE (110°)5.8 mphOvercast
3:55 PM28.4 °F28.4 °F100 %29.56 in0.2 miESE (110°)4.6 mphSnowLight Snow
4:15 PM30.2 °F30.2 °F100 %29.56 in0.2 miEast (100°)5.8 mph0.01 inSnowLight Snow
4:55 PM30.2 °F30.2 °F100 %29.56 in0.2 miSSE (160°)5.8 mph0.01 inSnowLight Snow
5:15 PM30.2 °F30.2 °F100 %29.57 in0.5 miSSW (210°)5.8 mph0.02 inSnowLight Snow
5:35 PM30.2 °F30.2 °F100 %29.59 in0.2 miWNW (290°)5.8 mph0.03 inSnowLight Snow
5:55 PM28.4 °F28.4 °F100 %29.60 in0.2 miNW (320°)6.9 mph0.01 inOvercast
6:15 PM28.4 °F28.4 °F100 %29.61 in0.2 miWest (280°)9.2 mph0.01 inSnowLight Snow
6:35 PM28.4 °F28.4 °F100 %29.61 in0.2 miWest (280°)12.7 mph0.01 inSnowSnow
6:55 PM30.2 °F30.2 °F100 %29.63 in0.2 miWest (280°)13.8 mph19.6 mphSnowLight Snow
7:15 PM28.4 °F28.4 °F100 %29.64 in0.2 miWest (280°)16.1 mph23.0 mphOvercast
7:35 PM28.4 °F28.4 °F100 %29.65 in0.2 miWNW (290°)15.0 mphSnowLight Snow
7:55 PM28.4 °F28.4 °F100 %29.66 in5.0 miWNW (290°)15.0 mph20.7 mphOvercast
8:15 PM28.4 °F28.4 °F100 %29.67 in1.2 miWest (280°)19.6 mph25.3 mphOvercast
8:35 PM28.4 °F28.4 °F100 %29.67 in10.0 miWNW (290°)15.0 mph24.2 mphOvercast
8:55 PM26.6 °F26.6 °F100 %29.68 in10.0 miWest (280°)16.1 mph24.2 mphOvercast
9:15 PM26.6 °F26.6 °F100 %29.69 in7.0 miWest (280°)11.5 mph20.7 mphOvercast
9:35 PM26.6 °F26.6 °F100 %29.70 in5.0 miWest (280°)16.1 mph21.9 mphOvercast
9:55 PM26.6 °F26.6 °F100 %29.70 in1.0 miWest (280°)16.1 mph21.9 mphOvercast
10:15 PM26.6 °F26.6 °F100 %29.71 in0.2 miWNW (300°)12.7 mph18.4 mphOvercast
10:35 PM26.6 °F26.6 °F100 %29.71 in0.2 miWNW (290°)12.7 mph18.4 mphOvercast
10:55 PM26.6 °F26.6 °F100 %29.72 in0.2 miWNW (290°)17.3 mph20.7 mphOvercast
11:15 PM26.6 °F26.6 °F100 %29.72 in0.5 miWNW (290°)20.7 mph28.8 mphOvercast
11:35 PM26.6 °F26.6 °F100 %29.72 in0.2 miWNW (290°)20.7 mph29.9 mphOvercast
11:55 PM26.6 °F26.6 °F100 %29.73 in0.2 miWNW (290°)19.6 mph23.0 mphOvercast
Hourly data recorded from KHSP, located miles away from Marlinton, West Virginia







STORIES FROM OUR PARTNERS